Retour au catalogue

STARLINK-31627

ActifCommunicationsVLEO
NORAD 59268·PAYLOAD·🇺🇸 United States

Lancé Mar 19, 2024 depuis Vandenberg Space Force Base

Loading…

Prochains Passages (prochaines 24 heures)

TLE

FraisSource: CelesTrak SupGP

Époque: Sep 14, 2026, 22:49 UTC

1 59268C 24050Q   26257.95118056 -.00010470  00000+0 -30948-3 0  2575
2 59268  53.1593  19.4489 0001008  85.2815 135.8369 15.34382469    12

Suivez STARLINK-31627 en temps réel avec AllMySat

Download on the App Store